Simultaneous Nadir Overpasses (SNOs) Predictions

Prediction of SNOs between METOP-B and NOAA-19 Satellite Orbit:

Table of predicted SNOs for the next 14.0 days since TLE Epoch: 2/22/2014
Index Date (METOP-B) Time (METOP-B) Lat,Lon (METOP-B) SZA (METOP-B ) Date (NOAA-19) Time (NOAA-19) Lat,Lon (NOAA-19) SZA (NOAA-19 ) Distance(km) Time Diff (sec)
1 03/03/2014 15:14:21 -73.85, 126.10 99.39 03/03/2014 15:13:07 -73.86, 125.75 99.35 11.05 74
2 03/03/2014 16:05:03 73.76, -66.78 80.53 03/03/2014 16:04:06 73.75, -66.76 80.53 0.71 57
3 03/03/2014 16:55:45 -73.73, 100.48 99.52 03/03/2014 16:55:08 -73.71, 100.58 99.53 3.50 37
4 03/03/2014 17:46:25 73.74, -92.16 80.48 03/03/2014 17:46:09 73.71, -92.16 80.46 3.25 16
5 03/03/2014 18:37:07 -73.71, 75.10 99.56 03/03/2014 18:37:12 -73.72, 75.06 99.56 1.48 5
6 03/03/2014 19:27:48 73.67,-117.66 80.39 03/03/2014 19:28:12 73.66,-117.57 80.38 2.98 24
7 03/03/2014 20:18:29 -73.69, 49.72 99.61 03/03/2014 20:19:15 -73.67, 49.65 99.63 3.08 46
8 03/03/2014 21:09:10 73.65,-143.04 80.35 03/03/2014 21:10:16 73.67,-143.09 80.36 2.43 66
9 03/03/2014 22:00:01 -73.18, 23.21 100.09 03/03/2014 22:01:10 -73.23, 25.17 100.13 63.30 69




NCC Satellite Simultaneous Nadir Overpasses (SNOs) Prediction Service
